Regional Weather Roundup
Issued by NWS

Home | Current Version | Previous Version | Graphics & Text | Print | Product List | Glossary On
Versions: 1 2 3 4 5 6 7 8 9 10 11 12 13 14 15 16 17 18 19 20 21 22 23 24 25 26 27 28 29 30 31 32 33 34 35 36 37 38 39 40 41 42 43 44 45 46 47 48 49 50
000
ASUS45 KABQ 250610
RWRNM
NEW MEXICO REGIONAL WEATHER ROUNDUP
NATIONAL WEATHER SERVICE ALBUQUERQUE NM
1200 AM MDT SAT MAR 25 2017

NOTE: "FAIR" MEANS FEW OR NO CLOUDS BELOW 12,000 FEET AGL WITH NO
       SIGNIFICANT WEATHER OR OBSTRUCTIONS TO VISION.

      THIS PRODUCT IS RELEASED AS TWO VERSIONS.  ONE VERSION NEAR
      THE TOP OF THE HOUR CONTAINING PRELIMINARY DATA FROM ALBUQUERQUE
      AND OTHER STATIONS.  A FINAL VERSION WITH ADDITIONAL DATA IS
      ISSUED ABOUT 10 MINUTES AFTER THE HOUR.

NMZ501-503-504-510>518-250700-
NORTHWEST PLATEAU/NORTHCENTRAL MOUNTAINS

CITY           SKY/WX    TMP DP  RH WIND       PRES   REMARKS
FARMINGTON     FAIR      44  22  41 W6        30.15F
6HR MIN TEMP:  43; 6HR MAX TEMP:  62;

LOS ALAMOS     FAIR      45  22  39 NW5       30.20S
SANTA FE       FAIR      38  30  73 SE3       30.16S
6HR MIN TEMP:  35; 6HR MAX TEMP:  61;

TAOS             N/A     30  21  69 CALM      30.20S
ANGEL FIRE     FAIR      26  24  95 W7        30.21F WCI  18

$$
NMZ402-403-502-505>509-250700-
WESTCENTRAL MOUNTAINS/SOUTHWEST MOUNTAINS

CITY           SKY/WX    TMP DP  RH WIND       PRES   REMARKS
GALLUP         FAIR      31  23  72 CALM      30.23F
6HR MIN TEMP:  30; 6HR MAX TEMP:  59;

GRANTS         FAIR      32  22  66 CALM      30.25R
SILVER CITY    FAIR      43  27  53 NW6       30.21R

$$
NMZ407-409-411-412-250700-
SOUTHERN DESERTS

CITY           SKY/WX    TMP DP  RH WIND       PRES   REMARKS
DEMING         FAIR      51  27  39 W7        30.17S
6HR MIN TEMP:  51; 6HR MAX TEMP:  69;

LAS CRUCES     FAIR      53  25  34 NW6       30.15S
HOLLOMAN AFB   FAIR      55  24  30 SE6       30.15R
ALAMOGORDO     FAIR      50  21  32 CALM      30.12S
T OR C         FAIR      55  22  27 NW9       30.15R
6HR MIN TEMP:  55; 6HR MAX TEMP:  73;


$$
NMZ519>523-250700-
CENTRAL VALLEYS/CENTRAL HIGHLANDS

CITY           SKY/WX    TMP DP  RH WIND       PRES   REMARKS
ALBUQUERQUE    FAIR      55  18  23 CALM      30.17S
6HR MIN TEMP:  54; 6HR MAX TEMP:  67;

MORIARTY ARPT  FAIR      33  27  76 SW7       30.20F WCI  27
6HR MIN TEMP:  33; 6HR MAX TEMP:  64;

CLINES CORNERS FAIR      33  24  69 S7        30.21S WCI  27
6HR MIN TEMP:  32; 6HR MAX TEMP:  56;

BELEN          FAIR      46  19  34 W8        30.18R
6HR MIN TEMP:  44; 6HR MAX TEMP:  69;

SOCORRO        FAIR      54  23  30 E3        30.15S
6HR MIN TEMP:  54; 6HR MAX TEMP:  70;


$$
NMZ524>526-539-540-250700-
SOUTHCENTRAL MOUNTAINS

CITY           SKY/WX    TMP DP  RH WIND       PRES   REMARKS
RUIDOSO        FAIR      39  25  56 SE5       30.25S

$$
NMZ527>531-250700-
NORTHEAST HIGHLANDS/NORTHEAST PLAINS

CITY           SKY/WX    TMP DP  RH WIND       PRES   REMARKS
LAS VEGAS      FAIR      29  24  82 SW7       30.18S WCI  22
6HR MIN TEMP:  29; 6HR MAX TEMP:  51;

RATON          FAIR      38  26  62 N14       30.12F WCI  30
6HR MIN TEMP:  34; 6HR MAX TEMP:  39;

CLAYTON        FAIR      37  35  92 NW5       30.11F WCI  33
6HR MIN TEMP:  33; 6HR MAX TEMP:  44;


$$
NMZ532>537-250700-
EASTCENTRAL PLAINS

CITY           SKY/WX    TMP DP  RH WIND       PRES   REMARKS
TUCUMCARI      FAIR      38  28  67 CALM      30.12F
6HR MIN TEMP:  38; 6HR MAX TEMP:  58;

CANNON AFB     FAIR      42  33  71 N10       30.13S
6HR MIN TEMP:  42; 6HR MAX TEMP:  57;

CLOVIS AIRPORT FAIR      37  28  70 N5        30.13F WCI  34

$$
NMZ028-029-538-250700-
SOUTHEAST PLAINS

CITY           SKY/WX    TMP DP  RH WIND       PRES   REMARKS
ROSWELL        FAIR      50  27  40 W6          N/A
6HR MIN TEMP:  50; 6HR MAX TEMP:  70;

ARTESIA        FAIR      48  28  46 W8        30.19R
CARLSBAD       FAIR      53  29  39 N7        30.17R
6HR MIN TEMP:  53; 6HR MAX TEMP:  77;

HOBBS          FAIR      46  30  53 N7        30.17R


$$



USA.gov is the U.S. government's official web portal to all federal, state and local government web resources and services.